Location: Easter Hill Village
(37.9235°N, 122.3444°W)
Time: 17:01:29
(UTC+00:00)

COSMOS 2441 - Pass Details

Date: 16 September 2019
Orbit: 709 x 730 km, 98.0° (Epoch: 20 October)

Event Time Altitude Azimuth Distance (km) Brightness Sun altitude
Rises 12:37:46 0° 8° (N) 3,140 8.0 -15.2°
Reaches altitude 10° 12:40:04 10° 5° (N) 2,218 7.2 -14.8°
Maximum altitude 12:44:52 63° 285° (WNW) 809 4.4 -13.9°
Drops below altitude 10° 12:49:41 10° 205° (SSW) 2,215 6.5 -12.9°
Enters shadow 12:51:38 - 203° (SSW) 3,002 7.2 -12.6°
